COSMOS 249 DEB, 3757

Orbit data source: Space-Track

COSMOS 249 DEB, 3757 is space debris in LEO originally from a launch on Sun, 20 Oct 1968 UTC launched from the Tyuratam Missile And Space Complex (TTMTR). Debris objects in space refer to the collection of defunct objects orbiting the Earth. Examples of debris include non-operational satellites, rocket bodies, and fragments generated from explosions, collisions, or faulty payload assembly.

Loading next visibility...
Identifier
3757, 1968-091AU
Orbit
LEO
Country
Flag of CISCIS
Related business
Manufacturer
Unknown
Mission
Spacecraft
Bus & Motor
Unknown
Mass
Unknown
Launch date (UTC)
1968-10-20 (58 years ago)
Launch vehicle
Unknown
Launch site
Tyuratam Missile And Space Complex (TTMTR)
Object type
Payload
Rocket body
Debris
Shape & HBR
Unknown shape, 0.1 m
Radar Cross Section
Medium (>0.1 m² and <1 m²)

Expand to show TLE details & history
Last TLE update: 21 hours ago

TLE from 21 hours ago
0 COSMOS 249 DEB
1 03757U 68091AU  26235.62825223  .00014616  00000-0  15339-2 0  9995
2 03757  61.9747 355.2571 0355340 123.0745 240.4975 14.52906760843712
Epoch: 2026-08-23T15:04Z
TLE epoch observation values (Epoch: 2026-08-23T15:04:40.992Z)
Latitude
-0.00008°
Longitude
157.16468°
Altitude
848.67 km
Speed
7.36 km/s
True Right ascension
23h 41m 01s
True Declination
0° 00' 00"
Sunlit
Object was in full shadow at epoch
Visualization orbit readout
Latitude
Unknown
Longitude
Unknown
Altitude
Unknown
Speed
Unknown
Apparent Right ascension
Unknown
Apparent Declination
Unknown
Sunlit
N/A
Visualization observer readout
Local Sidereal Time
03:31:34
Azimuth
Unknown
Elevation
Unknown
Doppler factor
Unknown
Orbital elements
Apogee altitude
967.177 km
Perigee altitude
463.073 km
Semi-major axis
7,093.262 km
Eccentricity
0.03553
Inclination
61.9747°
RAAN
355.2571°
Arg. of periapsis
123.0745°
True anomaly
237.03162°
Mean anomaly
240.4975°
Eccentric anomaly
238.75682°
Mean motion
3.63307 °/min
Orbital period
99.09 mins
BSTAR
0.0015339
Loading maneuver chart data...
Computing Atmospheric mass density...
Loading historical data...
Loading historical data...
Loading historical data...
Loading historical data...
Loading historical data...
Loading historical data...
Loading historical data...

Documentation

Showing up to 5 results
|